ROMMA est une association bénévole à but non lucratif. Votre soutien est indispensable : ADHERER à ROMMA ou FAIRE un DON

Challes-les-Eaux - (73, Savoie)

Trouée des Marches (325 m)   Longitude: 05° 58' E   Latitude: 45° 32' N Station romma n°148
 

Détail journalier du     <<     >>

Température Precipitation Humidité Pression Vent Dir Rafale Dir. rafale
Heure (°C) (mm) (%) (hPa) (km/h) (km/h)
01:00 11.009410212ESE6SE
02:00 10.609410211SSE6SSE
03:00 10.609410211ESE6ESE
04:00 9.909510212SE6SSE
05:00 9.909510211SE8S
06:00 9.909510221SE8SE
07:00 9.709510221SSO6SSE
08:00 9.2095102202SSO
09:00 9.309610231ESE10ESE
10:00 10.209610241SE10S
11:00 12.309410242N6NNE
12:00 15.407710243N10NNO
13:00 17.206410233N13ONO
14:00 17.906210235ONO18ONO
15:00 18.505710234ONO15O
16:00 19.105210224ONO13ONO
17:00 18.805310224ONO16ONO
18:00 18.205510223ONO15O
19:00 15.606310231ONO15ONO
20:00 13.607310231ONO6N
21:00 11.4079102300
22:00 11.107710241N5NNE
23:00 9.608410241SO6SO
minuit 9.0085102402SO

Graphique du 10-10-2019

 

Serveur OMMA